Year,Month,Day,Hour,Minute,Value (Times are PST for temperature in C)
2023,05,03,00,00,16.40
2023,05,03,00,01,16.50
2023,05,03,00,02,16.50
2023,05,03,00,03,16.60
2023,05,03,00,04,16.60
2023,05,03,00,05,16.60
2023,05,03,00,06,16.70
2023,05,03,00,07,16.70
2023,05,03,00,08,16.70
2023,05,03,00,09,16.70
2023,05,03,00,10,16.70
2023,05,03,00,11,16.70
2023,05,03,00,12,16.80
2023,05,03,00,13,16.80
2023,05,03,00,14,16.80
2023,05,03,00,15,16.80
2023,05,03,00,16,16.80
2023,05,03,00,17,16.80
2023,05,03,00,18,16.80
2023,05,03,00,19,16.70
2023,05,03,00,20,16.70
2023,05,03,00,21,16.70
2023,05,03,00,22,16.60
2023,05,03,00,23,16.60
2023,05,03,00,24,16.60
2023,05,03,00,25,16.50
2023,05,03,00,26,16.50
2023,05,03,00,27,16.40
2023,05,03,00,28,16.40
2023,05,03,00,29,16.40
2023,05,03,00,30,16.40
2023,05,03,00,31,16.40
2023,05,03,00,32,16.40
2023,05,03,00,33,16.40
2023,05,03,00,34,16.40
2023,05,03,00,35,16.40
2023,05,03,00,36,16.40
2023,05,03,00,37,16.40
2023,05,03,00,38,16.40
2023,05,03,00,39,16.40
2023,05,03,00,40,16.40
2023,05,03,00,41,16.40
2023,05,03,00,42,16.40
2023,05,03,00,43,16.50
2023,05,03,00,44,16.50
2023,05,03,00,45,16.50
2023,05,03,00,46,16.50
2023,05,03,00,47,16.50
2023,05,03,00,48,16.50
2023,05,03,00,49,16.50
2023,05,03,00,50,16.60
2023,05,03,00,51,16.60
2023,05,03,00,52,16.70
2023,05,03,00,53,16.70
2023,05,03,00,54,16.70
2023,05,03,00,55,16.70
2023,05,03,00,56,16.70
2023,05,03,00,57,16.80
2023,05,03,00,58,16.80
2023,05,03,00,59,16.80
2023,05,03,01,00,16.80
2023,05,03,01,01,16.90
2023,05,03,01,02,16.90
2023,05,03,01,03,16.90
2023,05,03,01,04,17.00
2023,05,03,01,05,17.00
2023,05,03,01,06,17.00
2023,05,03,01,07,17.00
2023,05,03,01,08,17.10
2023,05,03,01,09,17.10
2023,05,03,01,10,17.10
2023,05,03,01,11,17.10
2023,05,03,01,12,17.10
2023,05,03,01,13,17.10
2023,05,03,01,14,17.10
2023,05,03,01,15,17.10
2023,05,03,01,16,17.10
2023,05,03,01,17,17.10
2023,05,03,01,18,17.10
2023,05,03,01,19,17.10
2023,05,03,01,20,17.10
2023,05,03,01,21,17.10
2023,05,03,01,22,17.10
2023,05,03,01,23,17.00
2023,05,03,01,24,17.00
2023,05,03,01,25,16.90
2023,05,03,01,26,16.80
2023,05,03,01,27,16.70
2023,05,03,01,28,16.60
2023,05,03,01,29,16.50
2023,05,03,01,30,16.30
2023,05,03,01,31,16.20
2023,05,03,01,32,16.20
2023,05,03,01,33,16.10
2023,05,03,01,34,16.00
2023,05,03,01,35,15.90
2023,05,03,01,36,15.80
2023,05,03,01,37,15.70
2023,05,03,01,38,15.60
2023,05,03,01,39,15.50
2023,05,03,01,40,15.40
2023,05,03,01,41,15.20
2023,05,03,01,42,15.10
2023,05,03,01,43,15.00
2023,05,03,01,44,15.00
2023,05,03,01,45,14.70
2023,05,03,01,46,14.50
2023,05,03,01,47,14.40
2023,05,03,01,48,14.30
2023,05,03,01,49,14.20
2023,05,03,01,50,14.10
2023,05,03,01,51,14.10
2023,05,03,01,52,14.00
2023,05,03,01,53,13.90
2023,05,03,01,54,13.80
2023,05,03,01,55,13.80
2023,05,03,01,56,13.70
2023,05,03,01,57,13.60
2023,05,03,01,58,13.60
2023,05,03,01,59,13.50
2023,05,03,02,00,13.40
2023,05,03,02,01,13.40
2023,05,03,02,02,13.30
2023,05,03,02,03,13.20
2023,05,03,02,04,13.10
2023,05,03,02,05,13.00
2023,05,03,02,06,12.90
2023,05,03,02,07,12.90
2023,05,03,02,08,12.80
2023,05,03,02,09,12.70
2023,05,03,02,10,12.70
2023,05,03,02,11,12.60
2023,05,03,02,12,12.60
2023,05,03,02,13,12.60
2023,05,03,02,14,12.50
2023,05,03,02,15,12.50
2023,05,03,02,16,12.40
2023,05,03,02,17,12.40
2023,05,03,02,18,12.40
2023,05,03,02,19,12.30
2023,05,03,02,20,12.30
2023,05,03,02,21,12.20
2023,05,03,02,22,12.20
2023,05,03,02,23,12.10
2023,05,03,02,24,12.10
2023,05,03,02,25,12.00
2023,05,03,02,26,12.00
2023,05,03,02,27,11.90
2023,05,03,02,28,11.90
2023,05,03,02,29,11.90
2023,05,03,02,30,11.80
2023,05,03,02,31,11.80
2023,05,03,02,32,11.80
2023,05,03,02,33,11.80
2023,05,03,02,34,11.80
2023,05,03,02,35,11.80
2023,05,03,02,36,11.80
2023,05,03,02,37,11.70
2023,05,03,02,38,11.70
2023,05,03,02,39,11.70
2023,05,03,02,40,11.70
2023,05,03,02,41,11.60
2023,05,03,02,42,11.60
2023,05,03,02,43,11.60
2023,05,03,02,44,11.60
2023,05,03,02,45,11.60
2023,05,03,02,46,11.60
2023,05,03,02,47,11.60
2023,05,03,02,48,11.60
2023,05,03,02,49,11.60
2023,05,03,02,50,11.60
2023,05,03,02,51,11.60
2023,05,03,02,52,11.60
2023,05,03,02,53,11.60
2023,05,03,02,54,11.50
2023,05,03,02,55,11.50
2023,05,03,02,56,11.50
2023,05,03,02,57,11.50
2023,05,03,02,58,11.50
2023,05,03,02,59,11.50
2023,05,03,03,00,11.50
2023,05,03,03,01,11.60
2023,05,03,03,02,11.60
2023,05,03,03,03,11.60
2023,05,03,03,04,11.60
2023,05,03,03,05,11.60
2023,05,03,03,06,11.60
2023,05,03,03,07,11.60
2023,05,03,03,08,11.60
2023,05,03,03,09,11.50
2023,05,03,03,10,11.50
2023,05,03,03,11,11.50
2023,05,03,03,12,11.50
2023,05,03,03,13,11.50
2023,05,03,03,14,11.50
2023,05,03,03,15,11.50
2023,05,03,03,16,11.50
2023,05,03,03,17,11.50
2023,05,03,03,18,11.50
2023,05,03,03,19,11.50
2023,05,03,03,20,11.40
2023,05,03,03,21,11.40
2023,05,03,03,22,11.40
2023,05,03,03,23,11.40
2023,05,03,03,24,11.40
2023,05,03,03,25,11.40
2023,05,03,03,26,11.40
2023,05,03,03,27,11.40
2023,05,03,03,28,11.40
2023,05,03,03,29,11.40
2023,05,03,03,30,11.40
2023,05,03,03,31,11.40
2023,05,03,03,32,11.40
2023,05,03,03,33,11.40
2023,05,03,03,34,11.30
2023,05,03,03,35,11.30
2023,05,03,03,36,11.30
2023,05,03,03,37,11.30
2023,05,03,03,38,11.30
2023,05,03,03,39,11.30
2023,05,03,03,40,11.30
2023,05,03,03,41,11.30
2023,05,03,03,42,11.30
2023,05,03,03,43,11.30
2023,05,03,03,44,11.30
2023,05,03,03,45,11.30
2023,05,03,03,46,11.30
2023,05,03,03,47,11.30
2023,05,03,03,48,11.30
2023,05,03,03,49,11.30
2023,05,03,03,50,11.30
2023,05,03,03,51,11.30
2023,05,03,03,52,11.30
2023,05,03,03,53,11.30
2023,05,03,03,54,11.30
2023,05,03,03,55,11.30
2023,05,03,03,56,11.30
2023,05,03,03,57,11.30
2023,05,03,03,58,11.30
2023,05,03,03,59,11.30
2023,05,03,04,00,11.30
2023,05,03,04,01,11.30
2023,05,03,04,02,11.30
2023,05,03,04,03,11.30
2023,05,03,04,04,11.30
2023,05,03,04,05,11.30
2023,05,03,04,06,11.30
2023,05,03,04,07,11.40
2023,05,03,04,08,11.40
2023,05,03,04,09,11.50
2023,05,03,04,10,11.50
2023,05,03,04,11,11.60
2023,05,03,04,12,11.60
2023,05,03,04,13,11.70
2023,05,03,04,14,11.70
2023,05,03,04,15,11.80
2023,05,03,04,16,11.80
2023,05,03,04,17,11.80
2023,05,03,04,18,11.80
2023,05,03,04,19,11.80
2023,05,03,04,20,11.90
2023,05,03,04,21,11.90
2023,05,03,04,22,12.00
2023,05,03,04,23,12.00
2023,05,03,04,24,12.10
2023,05,03,04,25,12.10
2023,05,03,04,26,12.10
2023,05,03,04,27,12.10
2023,05,03,04,28,12.10
2023,05,03,04,29,12.10
2023,05,03,04,30,12.10
2023,05,03,04,31,12.10
2023,05,03,04,32,12.10
2023,05,03,04,33,12.00
2023,05,03,04,34,12.00
2023,05,03,04,35,11.90
2023,05,03,04,36,11.90
2023,05,03,04,37,11.90
2023,05,03,04,38,11.90
2023,05,03,04,39,11.90
2023,05,03,04,40,11.90
2023,05,03,04,41,11.90
2023,05,03,04,42,11.90
2023,05,03,04,43,11.90
2023,05,03,04,44,11.80
2023,05,03,04,45,11.80
2023,05,03,04,46,11.80
2023,05,03,04,47,11.80
2023,05,03,04,48,11.80
2023,05,03,04,49,11.70
2023,05,03,04,50,11.70
2023,05,03,04,51,11.70
2023,05,03,04,52,11.70
2023,05,03,04,53,11.70
2023,05,03,04,54,11.70
2023,05,03,04,55,11.60
2023,05,03,04,56,11.60
2023,05,03,04,57,11.50
2023,05,03,04,58,11.50
2023,05,03,04,59,11.40
2023,05,03,05,00,11.40
2023,05,03,05,01,11.40
2023,05,03,05,02,11.40
2023,05,03,05,03,11.30
2023,05,03,05,04,11.30
2023,05,03,05,05,11.30
2023,05,03,05,06,11.30
2023,05,03,05,07,11.20
2023,05,03,05,08,11.20
2023,05,03,05,09,11.10
2023,05,03,05,10,11.10
2023,05,03,05,11,11.00
2023,05,03,05,12,10.90
2023,05,03,05,13,10.90
2023,05,03,05,14,10.80
2023,05,03,05,15,10.80
2023,05,03,05,16,10.80
2023,05,03,05,17,10.80
2023,05,03,05,18,10.80
2023,05,03,05,19,10.70
2023,05,03,05,20,10.70
2023,05,03,05,21,10.70
2023,05,03,05,22,10.70
2023,05,03,05,23,10.70
2023,05,03,05,24,10.70
2023,05,03,05,25,10.70
2023,05,03,05,26,10.70
2023,05,03,05,27,10.70
2023,05,03,05,28,10.70
2023,05,03,05,29,10.70
2023,05,03,05,30,10.60
2023,05,03,05,31,10.60
2023,05,03,05,32,10.60
2023,05,03,05,33,10.60
2023,05,03,05,34,10.60
2023,05,03,05,35,10.50
2023,05,03,05,36,10.50
2023,05,03,05,37,10.50
2023,05,03,05,38,10.50
2023,05,03,05,39,10.40
2023,05,03,05,40,10.40
2023,05,03,05,41,10.40
2023,05,03,05,42,10.40
2023,05,03,05,43,10.40
2023,05,03,05,44,10.40
2023,05,03,05,45,10.40
2023,05,03,05,46,10.30
2023,05,03,05,47,10.30
2023,05,03,05,48,10.30
2023,05,03,05,49,10.30
2023,05,03,05,50,10.30
2023,05,03,05,51,10.30
2023,05,03,05,52,10.30
2023,05,03,05,53,10.30
2023,05,03,05,54,10.30
2023,05,03,05,55,10.20
2023,05,03,05,56,10.20
2023,05,03,05,57,10.20
2023,05,03,05,58,10.20
2023,05,03,05,59,10.20
2023,05,03,06,00,10.20
2023,05,03,06,01,10.20
2023,05,03,06,02,10.20
2023,05,03,06,03,10.20
2023,05,03,06,04,10.20
2023,05,03,06,05,10.20
2023,05,03,06,06,10.20
2023,05,03,06,07,10.20
2023,05,03,06,08,10.20
2023,05,03,06,09,10.20
2023,05,03,06,10,10.20
2023,05,03,06,11,10.20
2023,05,03,06,12,10.20
2023,05,03,06,13,10.20
2023,05,03,06,14,10.20
2023,05,03,06,15,10.20
2023,05,03,06,16,10.20
2023,05,03,06,17,10.20
2023,05,03,06,18,10.20
2023,05,03,06,19,10.20
2023,05,03,06,20,10.20
2023,05,03,06,21,10.10
2023,05,03,06,22,10.20
2023,05,03,06,23,10.20
2023,05,03,06,24,10.20
2023,05,03,06,25,10.20
2023,05,03,06,26,10.20
2023,05,03,06,27,10.20
2023,05,03,06,28,10.20
2023,05,03,06,29,10.30
2023,05,03,06,30,10.20
2023,05,03,06,31,10.20
2023,05,03,06,32,10.20
2023,05,03,06,33,10.20
2023,05,03,06,34,10.20
2023,05,03,06,35,10.20
2023,05,03,06,36,10.20
2023,05,03,06,37,10.20
2023,05,03,06,38,10.20
2023,05,03,06,39,10.20
2023,05,03,06,40,10.20
2023,05,03,06,41,10.20
2023,05,03,06,42,10.20
2023,05,03,06,43,10.20
2023,05,03,06,44,10.20
2023,05,03,06,45,10.20
2023,05,03,06,46,10.20
2023,05,03,06,47,10.20
2023,05,03,06,48,10.20
2023,05,03,06,49,10.20
2023,05,03,06,50,10.20
2023,05,03,06,51,10.20
2023,05,03,06,52,10.20
2023,05,03,06,53,10.30
2023,05,03,06,54,10.30
2023,05,03,06,55,10.30
2023,05,03,06,56,10.30
2023,05,03,06,57,10.30
2023,05,03,06,58,10.40
2023,05,03,06,59,10.40
2023,05,03,07,00,10.40
2023,05,03,07,01,10.40
2023,05,03,07,02,10.40
2023,05,03,07,03,10.50
2023,05,03,07,04,10.50
2023,05,03,07,05,10.50
2023,05,03,07,06,10.60
2023,05,03,07,07,10.60
2023,05,03,07,08,10.60
2023,05,03,07,09,10.60
2023,05,03,07,10,10.70
2023,05,03,07,11,10.70
2023,05,03,07,12,10.70
2023,05,03,07,13,10.70
2023,05,03,07,14,10.70
2023,05,03,07,15,10.70
2023,05,03,07,16,10.70
2023,05,03,07,17,10.80
2023,05,03,07,18,10.80
2023,05,03,07,19,10.80
2023,05,03,07,20,10.80
2023,05,03,07,21,10.80
2023,05,03,07,22,10.90
2023,05,03,07,23,10.90
2023,05,03,07,24,10.90
2023,05,03,07,25,10.90
2023,05,03,07,26,10.90
2023,05,03,07,27,11.00
2023,05,03,07,28,11.00
2023,05,03,07,29,11.10
2023,05,03,07,30,11.10
2023,05,03,07,31,11.10
2023,05,03,07,32,11.10
2023,05,03,07,33,11.20
2023,05,03,07,34,11.20
2023,05,03,07,35,11.20
2023,05,03,07,36,11.30
2023,05,03,07,37,11.30
2023,05,03,07,38,11.40
2023,05,03,07,39,11.40
2023,05,03,07,40,11.50
2023,05,03,07,41,11.50
2023,05,03,07,42,11.60
2023,05,03,07,43,11.60
2023,05,03,07,44,11.70
2023,05,03,07,45,11.70
2023,05,03,07,46,11.80
2023,05,03,07,47,11.80
2023,05,03,07,48,11.90
2023,05,03,07,49,11.90
2023,05,03,07,50,12.00
2023,05,03,07,51,12.00
2023,05,03,07,52,12.10
2023,05,03,07,53,12.20
2023,05,03,07,54,12.30
2023,05,03,07,55,12.30
2023,05,03,07,56,12.40
2023,05,03,07,57,12.40
2023,05,03,07,58,12.50
2023,05,03,07,59,12.60
2023,05,03,08,00,12.60
2023,05,03,08,01,12.70
2023,05,03,08,02,12.70
2023,05,03,08,03,12.70
2023,05,03,08,04,12.70
2023,05,03,08,05,12.70
2023,05,03,08,06,12.80
2023,05,03,08,07,12.80
2023,05,03,08,08,12.80
2023,05,03,08,09,12.80
2023,05,03,08,10,12.80
2023,05,03,08,11,12.80
2023,05,03,08,12,12.80
2023,05,03,08,13,12.90
2023,05,03,08,14,12.90
2023,05,03,08,15,12.90
2023,05,03,08,16,12.90
2023,05,03,08,17,13.00
2023,05,03,08,18,13.00
2023,05,03,08,19,13.00
2023,05,03,08,20,13.10
2023,05,03,08,21,13.10
2023,05,03,08,22,13.20
2023,05,03,08,23,13.20
2023,05,03,08,24,13.30
2023,05,03,08,25,13.30
2023,05,03,08,26,13.40
2023,05,03,08,27,13.40
2023,05,03,08,28,13.50
2023,05,03,08,29,13.50
2023,05,03,08,30,13.60
2023,05,03,08,31,13.60
2023,05,03,08,32,13.70
2023,05,03,08,33,13.70
2023,05,03,08,34,13.70
2023,05,03,08,35,13.80
2023,05,03,08,36,13.80
2023,05,03,08,37,13.90
2023,05,03,08,38,13.90
2023,05,03,08,39,13.90
2023,05,03,08,40,14.00
2023,05,03,08,41,14.00
2023,05,03,08,42,14.00
2023,05,03,08,43,14.10
2023,05,03,08,44,14.10
2023,05,03,08,45,14.10
2023,05,03,08,46,14.10
2023,05,03,08,47,14.10
2023,05,03,08,48,14.20
2023,05,03,08,49,14.20
2023,05,03,08,50,14.20
2023,05,03,08,51,14.30
2023,05,03,08,52,14.30
2023,05,03,08,53,14.30
2023,05,03,08,54,14.30
2023,05,03,08,55,14.50
2023,05,03,08,56,14.50
2023,05,03,08,57,14.60
2023,05,03,08,58,14.60
2023,05,03,08,59,14.70
2023,05,03,09,00,14.70
2023,05,03,09,01,14.80
2023,05,03,09,02,14.80
2023,05,03,09,03,14.90
2023,05,03,09,04,14.90
2023,05,03,09,05,14.90
2023,05,03,09,06,14.90
2023,05,03,09,07,14.90
2023,05,03,09,08,14.90
2023,05,03,09,09,14.90
2023,05,03,09,10,14.90
2023,05,03,09,11,14.90
2023,05,03,09,12,14.90
2023,05,03,09,13,14.90
2023,05,03,09,14,14.90
2023,05,03,09,15,14.90
2023,05,03,09,16,14.90
2023,05,03,09,17,14.80
2023,05,03,09,18,14.80
2023,05,03,09,19,14.80
2023,05,03,09,20,14.80
2023,05,03,09,21,14.80
2023,05,03,09,22,14.80
2023,05,03,09,23,14.80
2023,05,03,09,24,14.80
2023,05,03,09,25,14.80
2023,05,03,09,26,14.80
2023,05,03,09,27,14.80
2023,05,03,09,28,14.80
2023,05,03,09,29,14.90
2023,05,03,09,30,14.90
2023,05,03,09,31,14.90
2023,05,03,09,32,14.90
2023,05,03,09,33,14.90
2023,05,03,09,34,14.90
2023,05,03,09,35,14.90
2023,05,03,09,36,14.90
2023,05,03,09,37,14.90
2023,05,03,09,38,14.90
2023,05,03,09,39,14.90
2023,05,03,09,40,14.90
2023,05,03,09,41,14.90
2023,05,03,09,42,14.80
2023,05,03,09,43,14.80
2023,05,03,09,44,14.80
2023,05,03,09,45,14.80
2023,05,03,09,46,14.80
2023,05,03,09,47,14.80
2023,05,03,09,48,14.80
2023,05,03,09,49,14.80
2023,05,03,09,50,14.80
2023,05,03,09,51,14.80
2023,05,03,09,52,14.80
2023,05,03,09,53,14.90
2023,05,03,09,54,14.90
2023,05,03,09,55,14.90
2023,05,03,09,56,15.00
2023,05,03,09,57,15.00
2023,05,03,09,58,15.00
2023,05,03,09,59,15.10
2023,05,03,10,00,15.10
2023,05,03,10,01,15.10
2023,05,03,10,02,15.20
2023,05,03,10,03,15.20
2023,05,03,10,04,15.20
2023,05,03,10,05,15.30
2023,05,03,10,06,15.30
2023,05,03,10,07,15.30
2023,05,03,10,08,15.40
2023,05,03,10,09,15.40
2023,05,03,10,10,15.40
2023,05,03,10,11,15.40
2023,05,03,10,12,15.40
2023,05,03,10,13,15.40
2023,05,03,10,14,15.50
2023,05,03,10,15,15.50
2023,05,03,10,16,15.60
2023,05,03,10,17,15.60
2023,05,03,10,18,15.60
2023,05,03,10,19,15.70
2023,05,03,10,20,15.70
2023,05,03,10,21,15.70
2023,05,03,10,22,15.70
2023,05,03,10,23,15.70
2023,05,03,10,24,15.70
2023,05,03,10,25,15.70
2023,05,03,10,26,15.60
2023,05,03,10,27,15.60
2023,05,03,10,28,15.60
2023,05,03,10,29,15.60
2023,05,03,10,30,15.60
2023,05,03,10,31,15.70
2023,05,03,10,32,15.70
2023,05,03,10,33,15.70
2023,05,03,10,34,15.70
2023,05,03,10,35,15.80
2023,05,03,10,36,15.80
2023,05,03,10,37,15.80
2023,05,03,10,38,15.80
2023,05,03,10,39,15.80
2023,05,03,10,40,15.80
2023,05,03,10,41,15.80
2023,05,03,10,42,15.90
2023,05,03,10,43,15.90
2023,05,03,10,44,15.90
2023,05,03,10,45,15.90
2023,05,03,10,46,16.00
2023,05,03,10,47,16.00
2023,05,03,10,48,16.10
2023,05,03,10,49,16.10
2023,05,03,10,50,16.10
2023,05,03,10,51,16.20
2023,05,03,10,52,16.20
2023,05,03,10,53,16.30
2023,05,03,10,54,16.30
2023,05,03,10,55,16.40
2023,05,03,10,56,16.50
2023,05,03,10,57,16.50
2023,05,03,10,58,16.60
2023,05,03,10,59,16.60
2023,05,03,11,00,16.70
2023,05,03,11,01,16.70
2023,05,03,11,02,16.80
2023,05,03,11,03,16.80
2023,05,03,11,04,16.90
2023,05,03,11,05,17.00
2023,05,03,11,06,17.10
2023,05,03,11,07,17.10
2023,05,03,11,08,17.20
2023,05,03,11,09,17.30
2023,05,03,11,10,17.30
2023,05,03,11,11,17.30
2023,05,03,11,12,17.30
2023,05,03,11,13,17.30
2023,05,03,11,14,17.30
2023,05,03,11,15,17.40
2023,05,03,11,16,17.40
2023,05,03,11,17,17.40
2023,05,03,11,18,17.50
2023,05,03,11,19,17.50
2023,05,03,11,20,17.50
2023,05,03,11,21,17.60
2023,05,03,11,22,17.60
2023,05,03,11,23,17.60
2023,05,03,11,24,17.70
2023,05,03,11,25,17.70
2023,05,03,11,26,17.80
2023,05,03,11,27,17.80
2023,05,03,11,28,17.90
2023,05,03,11,29,17.90
2023,05,03,11,30,18.00
2023,05,03,11,31,18.00
2023,05,03,11,32,18.00
2023,05,03,11,33,18.10
2023,05,03,11,34,18.10
2023,05,03,11,35,18.00
2023,05,03,11,36,18.10
2023,05,03,11,37,18.10
2023,05,03,11,38,18.00
2023,05,03,11,39,18.00
2023,05,03,11,40,18.00
2023,05,03,11,41,18.00
2023,05,03,11,42,17.90
2023,05,03,11,43,17.90
2023,05,03,11,44,17.90
2023,05,03,11,45,17.80
2023,05,03,11,46,17.80
2023,05,03,11,47,17.80
2023,05,03,11,48,17.80
2023,05,03,11,49,17.70
2023,05,03,11,50,17.70
2023,05,03,11,51,17.70
2023,05,03,11,52,17.70
2023,05,03,11,53,17.80
2023,05,03,11,54,17.90
2023,05,03,11,55,18.00
2023,05,03,11,56,18.00
2023,05,03,11,57,18.10
2023,05,03,11,58,18.10
2023,05,03,11,59,18.10
2023,05,03,12,00,18.10
2023,05,03,12,01,18.10
2023,05,03,12,02,18.10
2023,05,03,12,03,18.20
2023,05,03,12,04,18.30
2023,05,03,12,05,18.30
2023,05,03,12,06,18.40
2023,05,03,12,07,18.40
2023,05,03,12,08,18.50
2023,05,03,12,09,18.50
2023,05,03,12,10,18.60
2023,05,03,12,11,18.60
2023,05,03,12,12,18.50
2023,05,03,12,13,18.50
2023,05,03,12,14,18.40
2023,05,03,12,15,18.30
2023,05,03,12,16,18.30
2023,05,03,12,17,18.30
2023,05,03,12,18,18.30
2023,05,03,12,19,18.30
2023,05,03,12,20,18.30
2023,05,03,12,21,18.30
2023,05,03,12,22,18.30
2023,05,03,12,23,18.30
2023,05,03,12,24,18.30
2023,05,03,12,25,18.30
2023,05,03,12,26,18.30
2023,05,03,12,27,18.30
2023,05,03,12,28,18.40
2023,05,03,12,29,18.40
2023,05,03,12,30,18.50
2023,05,03,12,31,18.60
2023,05,03,12,32,18.60
2023,05,03,12,33,18.70
2023,05,03,12,34,18.70
2023,05,03,12,35,18.80
2023,05,03,12,36,18.80
2023,05,03,12,37,18.90
2023,05,03,12,38,19.00
2023,05,03,12,39,19.00
2023,05,03,12,40,19.10
2023,05,03,12,41,19.10
2023,05,03,12,42,19.10
2023,05,03,12,43,19.20
2023,05,03,12,44,19.20
2023,05,03,12,45,19.20
2023,05,03,12,46,19.20
2023,05,03,12,47,19.20
2023,05,03,12,48,19.30
2023,05,03,12,49,19.30
2023,05,03,12,50,19.30
2023,05,03,12,51,19.40
2023,05,03,12,52,19.50
2023,05,03,12,53,19.50
2023,05,03,12,54,19.50
2023,05,03,12,55,19.60
2023,05,03,12,56,19.70
2023,05,03,12,57,19.70
2023,05,03,12,58,19.80
2023,05,03,12,59,19.80
2023,05,03,13,00,19.90
2023,05,03,13,01,19.90
2023,05,03,13,02,19.90
2023,05,03,13,03,19.90
2023,05,03,13,04,19.80
2023,05,03,13,05,19.80
2023,05,03,13,06,19.70
2023,05,03,13,07,19.70
2023,05,03,13,08,19.70
2023,05,03,13,09,19.70
2023,05,03,13,10,19.70
2023,05,03,13,11,19.70
2023,05,03,13,12,19.80
2023,05,03,13,13,19.80
2023,05,03,13,14,19.80
2023,05,03,13,15,19.80
2023,05,03,13,16,19.90
2023,05,03,13,17,19.90
2023,05,03,13,18,19.90
2023,05,03,13,19,19.80
2023,05,03,13,20,19.80
2023,05,03,13,21,19.70
2023,05,03,13,22,19.70
2023,05,03,13,23,19.70
2023,05,03,13,24,19.70
2023,05,03,13,25,19.70
2023,05,03,13,26,19.70
2023,05,03,13,27,19.70
2023,05,03,13,28,19.60
2023,05,03,13,29,19.60
2023,05,03,13,30,19.60
2023,05,03,13,31,19.70
2023,05,03,13,32,19.70
2023,05,03,13,33,19.80
2023,05,03,13,34,19.90
2023,05,03,13,35,19.90
2023,05,03,13,36,19.90
2023,05,03,13,37,19.90
2023,05,03,13,38,19.90
2023,05,03,13,39,19.80
2023,05,03,13,40,19.80
2023,05,03,13,41,19.80
2023,05,03,13,42,19.80
2023,05,03,13,43,19.80
2023,05,03,13,44,19.80
2023,05,03,13,45,19.80
2023,05,03,13,46,19.80
2023,05,03,13,47,19.70
2023,05,03,13,48,19.70
2023,05,03,13,49,19.70
2023,05,03,13,50,19.70
2023,05,03,13,51,19.70
2023,05,03,13,52,19.70
2023,05,03,13,53,19.80
2023,05,03,13,54,19.80
2023,05,03,13,55,19.90
2023,05,03,13,56,20.00
2023,05,03,13,57,20.10
2023,05,03,13,58,20.20
2023,05,03,13,59,20.30
2023,05,03,14,00,20.40
2023,05,03,14,01,20.50
2023,05,03,14,02,20.50
2023,05,03,14,03,20.60
2023,05,03,14,04,20.60
2023,05,03,14,05,20.70
2023,05,03,14,06,20.70
2023,05,03,14,07,20.80
2023,05,03,14,08,20.90
2023,05,03,14,09,20.90
2023,05,03,14,10,21.00
2023,05,03,14,11,21.10
2023,05,03,14,12,21.20
2023,05,03,14,13,21.20
2023,05,03,14,14,21.20
2023,05,03,14,15,21.20
2023,05,03,14,16,21.20
2023,05,03,14,17,21.10
2023,05,03,14,18,21.00
2023,05,03,14,19,21.00
2023,05,03,14,20,20.90
2023,05,03,14,21,20.90
2023,05,03,14,22,21.00
2023,05,03,14,23,21.00
2023,05,03,14,24,21.10
2023,05,03,14,25,21.10
2023,05,03,14,26,21.10
2023,05,03,14,27,21.00
2023,05,03,14,28,21.00
2023,05,03,14,29,20.90
2023,05,03,14,30,20.90
2023,05,03,14,31,20.90
2023,05,03,14,32,20.90
2023,05,03,14,33,21.00
2023,05,03,14,34,21.10
2023,05,03,14,35,21.20
2023,05,03,14,36,21.20
2023,05,03,14,37,21.30
2023,05,03,14,38,21.30
2023,05,03,14,39,21.50
2023,05,03,14,40,21.50
2023,05,03,14,41,21.60
2023,05,03,14,42,21.60
2023,05,03,14,43,21.60
2023,05,03,14,44,21.40
2023,05,03,14,45,21.30
2023,05,03,14,46,21.20
2023,05,03,14,47,21.10
2023,05,03,14,48,21.00
2023,05,03,14,49,21.00
2023,05,03,14,50,21.00
2023,05,03,14,51,21.00
2023,05,03,14,52,21.00
2023,05,03,14,53,20.90
2023,05,03,14,54,20.90
2023,05,03,14,55,20.90
2023,05,03,14,56,20.90
2023,05,03,14,57,20.90
2023,05,03,14,58,20.90
2023,05,03,14,59,20.90
2023,05,03,15,00,20.90
2023,05,03,15,01,20.90
2023,05,03,15,02,20.90
2023,05,03,15,03,20.90
2023,05,03,15,04,21.00
2023,05,03,15,05,21.00
2023,05,03,15,06,21.10
2023,05,03,15,07,21.10
2023,05,03,15,08,21.10
2023,05,03,15,09,21.00
2023,05,03,15,10,21.00
2023,05,03,15,11,20.90
2023,05,03,15,12,20.80
2023,05,03,15,13,20.80
2023,05,03,15,14,20.80
2023,05,03,15,15,20.70
2023,05,03,15,16,20.70
2023,05,03,15,17,20.80
2023,05,03,15,18,20.90
2023,05,03,15,19,20.90
2023,05,03,15,20,21.00
2023,05,03,15,21,21.00
2023,05,03,15,22,21.10
2023,05,03,15,23,21.10
2023,05,03,15,24,21.10
2023,05,03,15,25,21.20
2023,05,03,15,26,21.20
2023,05,03,15,27,21.20
2023,05,03,15,28,21.20
2023,05,03,15,29,21.20
2023,05,03,15,30,21.20
2023,05,03,15,31,21.20
2023,05,03,15,32,21.30
2023,05,03,15,33,21.30
2023,05,03,15,34,21.20
2023,05,03,15,35,21.30
2023,05,03,15,36,21.30
2023,05,03,15,37,21.30
2023,05,03,15,38,21.30
2023,05,03,15,39,21.20
2023,05,03,15,40,21.20
2023,05,03,15,41,21.20
2023,05,03,15,42,21.20
2023,05,03,15,43,21.20
2023,05,03,15,44,21.20
2023,05,03,15,45,21.20
2023,05,03,15,46,21.10
2023,05,03,15,47,21.20
2023,05,03,15,48,21.20
2023,05,03,15,49,21.30
2023,05,03,15,50,21.30
2023,05,03,15,51,21.40
2023,05,03,15,52,21.40
2023,05,03,15,53,21.40
2023,05,03,15,54,21.50
2023,05,03,15,55,21.50
2023,05,03,15,56,21.60
2023,05,03,15,57,21.60
2023,05,03,15,58,21.60
2023,05,03,15,59,21.60
2023,05,03,16,00,21.60
2023,05,03,16,01,21.60
2023,05,03,16,02,21.60
2023,05,03,16,03,21.60
2023,05,03,16,04,21.60
2023,05,03,16,05,21.60
2023,05,03,16,06,21.50
2023,05,03,16,07,21.50
2023,05,03,16,08,21.40
2023,05,03,16,09,21.30
2023,05,03,16,10,21.30
2023,05,03,16,11,21.30
2023,05,03,16,12,21.20
2023,05,03,16,13,21.20
2023,05,03,16,14,21.20
2023,05,03,16,15,21.20
2023,05,03,16,16,21.20
2023,05,03,16,17,21.20
2023,05,03,16,18,21.30
2023,05,03,16,19,21.30
2023,05,03,16,20,21.40
2023,05,03,16,21,21.40
2023,05,03,16,22,21.50
2023,05,03,16,23,21.60
2023,05,03,16,24,21.60
2023,05,03,16,25,21.70
2023,05,03,16,26,21.80
2023,05,03,16,27,21.90
2023,05,03,16,28,22.00
2023,05,03,16,29,22.10
2023,05,03,16,30,22.20
2023,05,03,16,31,22.20
2023,05,03,16,32,22.30
2023,05,03,16,33,22.30
2023,05,03,16,34,22.30
2023,05,03,16,35,22.20
2023,05,03,16,36,22.20
2023,05,03,16,37,22.20
2023,05,03,16,38,22.20
2023,05,03,16,39,22.10
2023,05,03,16,40,22.10
2023,05,03,16,41,22.10
2023,05,03,16,42,22.10
2023,05,03,16,43,22.00
2023,05,03,16,44,22.00
2023,05,03,16,45,22.10
2023,05,03,16,46,22.10
2023,05,03,16,47,22.10
2023,05,03,16,48,22.10
2023,05,03,16,49,22.20
2023,05,03,16,50,22.20
2023,05,03,16,51,22.20
2023,05,03,16,52,22.20
2023,05,03,16,53,22.20
2023,05,03,16,54,22.20
2023,05,03,16,55,22.10
2023,05,03,16,56,22.10
2023,05,03,16,57,22.10
2023,05,03,16,58,22.10
2023,05,03,16,59,22.10
2023,05,03,17,00,22.10
2023,05,03,17,01,22.10
2023,05,03,17,02,22.10
2023,05,03,17,03,22.10
2023,05,03,17,04,22.10
2023,05,03,17,05,22.10
2023,05,03,17,06,22.10
2023,05,03,17,07,22.10
2023,05,03,17,08,22.10
2023,05,03,17,09,22.10
2023,05,03,17,10,22.10
2023,05,03,17,11,22.10
2023,05,03,17,12,22.10
2023,05,03,17,13,22.10
2023,05,03,17,14,22.10
2023,05,03,17,15,22.00
2023,05,03,17,16,22.00
2023,05,03,17,17,21.90
2023,05,03,17,18,21.90
2023,05,03,17,19,21.80